カタログに戻る

STARLINK-11610

運用中通信VLEO
NORAD 63135·PAYLOAD·🇺🇸 United States

打ち上げ Mar 3, 2025 から Cape Canaveral Space Force Station

Loading…

次のパス (今後24時間)

TLE

最新Source: CelesTrak SupGP

元期: Sep 15, 2026, 02:55 UTC

1 63135C 25043D   26258.12201389 -.00043627  00000+0 -33886-3 0  2583
2 63135  43.0005 189.1374 0001469 273.4046  30.4697 15.70859837    14

AllMySatでSTARLINK-11610をリアルタイム追跡

Download on the App Store